Regional Weather Roundup
Issued by NWS

Home | Current Version | Previous Version | Text Only | Print | Product List | Glossary On
Versions: 1 2 3 4 5 6 7 8 9 10 11 12 13 14 15 16 17 18 19 20 21 22 23 24 25 26 27 28 29 30 31 32 33 34 35 36 37 38 39 40 41 42 43 44 45 46 47 48 49 50
000
ASUS45 KBOU 122110
RWRCO

WEATHER ROUNDUP FOR COLORADO
NATIONAL WEATHER SERVICE DENVER/BOULDER CO
200 PM MST TUE DEC 12 2017

NOTE: "FAIR" INDICATES FEW OR NO CLOUDS BELOW 12000 FEET WITH NO
SIGNIFICANT WEATHER AND/OR OBSTRUCTIONS TO VISIBILITY.

COZ001>005-013-030-031-122200-
...NORTHWEST COLORADO...

CITY           SKY/WX    TMP DP  RH WIND       PRES   REMARKS
CRAIG          FAIR      40  19  43 CALM      30.42F
HAYDEN         FAIR      45  23  42 SE3       30.43F
MEEKER         FAIR      54  11  18 SW3       30.40F
RABBIT EARS PA FAIR      34   9  35 W8        30.49F WCI  27
STEAMBOAT SPGS FAIR      41  20  43 CALM      30.42F
WALDEN         FAIR      41  14  33 S8        30.43F
$$

COZ006>008-011-122200-
...WEST CENTRAL VALLEYS...

CITY           SKY/WX    TMP DP  RH WIND       PRES   REMARKS
GRAND JUNCTION FAIR      51  13  21 CALM      30.39F
MONTROSE       FAIR      49  10  20 N3        30.42F
EAGLE          FAIR      40  14  34 W3        30.47F
RIFLE          FAIR      51  13  21 CALM      30.40F
DELTA          FAIR      52   9  17 SW5       30.40F
NUCLA          FAIR      50   5  16 CALM      30.43F
$$

COZ017>023-064>068-122200-
...SOUTHWEST COLORADO...

CITY           SKY/WX    TMP DP  RH WIND       PRES   REMARKS
DURANGO        FAIR      53   4  13 W7        30.37F
CORTEZ         FAIR      49   3  15 SW6       30.39F
PAGOSA SPRINGS FAIR      54  -6   8 SW7       30.39F
TELLURIDE      FAIR      54   1  11 W13       30.46F
WOLF CREEK PAS FAIR      41   3  20 SW6       30.59F
$$

COZ009-010-012-014-032>034-037-058>063-122200-
...CENTRAL COLORADO...

CITY           SKY/WX    TMP DP  RH WIND       PRES   REMARKS
ASPEN          FAIR      51  12  21 NW3       30.41F
BUENA VISTA    FAIR      58   6  12 S3        30.34F
COPPER MTN     NOT AVBL
BERTHOUD PASS  FAIR      25  14  63 N10G30    30.51F WCI  15
COTTONWOOD PAS FAIR      55  -6   8 W9        30.43F
GUNNISON       FAIR      42   8  24 SW10      30.44F
KREMMLING      FAIR      37  19  48 CALM      30.49F
LEADVILLE      NOT AVBL
MONARCH PASS   FAIR      36   5  27 SW18G26   30.63F
SALIDA         FAIR      58   4  11 N7        30.40F
SUNLIGHT       FAIR      36   3  25 W5        30.56F
WILKERSON PASS FAIR      43   1  17 NW3       30.50F
$$

COZ069>075-122200-
...SAN LUIS VALLEY/SANGRE DE CRISTO MOUNTAINS...

CITY           SKY/WX    TMP DP  RH WIND       PRES   REMARKS
ALAMOSA        FAIR      51   3  14 CALM      30.38F
DEL NORTE      FAIR      47   4  17 E5        30.40F
LA VETA PASS   FAIR      45   9  23 SW16        N/A
SAGUACHE       FAIR      46   5  18 S3        30.40F
$$

COZ035-036-038>040-122200-
...NORTHERN COLORADO FRONT RANGE...

CITY           SKY/WX    TMP DP  RH WIND       PRES   REMARKS
DENVER INTL AP FAIR      68  13  12 N3        30.19F
DMNS CITY PARK NOT AVBL
AURORA         MOSUNNY   67  13  12 CALM      30.20F
FRONT RANGE AP MOSUNNY   68  14  12 CALM      30.20F
ERIE MUNI ARPT FAIR      63  14  15 N3        30.24F
BOULDER MUN AP FAIR      63  19  19 CALM      30.18F
CENTENNIAL     FAIR      66  17  15 NE3       30.21F
BROOMFIELD     MOSUNNY   66  14  13 VRB5      30.21F
FORT COLLINS   FAIR      61  19  19 SW3       30.19F
LONGMONT       FAIR      66  16  14 CALM      30.20F
$$

COZ041-046-047-076>085-087-088-122200-
...PIKES PEAK/PALMER DIVIDE AND SOUTHERN FOOTHILLS...

CITY           SKY/WX    TMP DP  RH WIND       PRES   REMARKS
COLO. SPRINGS  FAIR      60  11  14 VRB7      30.26F
A. F. ACADEMY  FAIR      60   5  11 SE5       30.25F
SCHRIEVER AFB  FAIR      59   7  12 SW3       30.26F
CHEYENNE MTN   FAIR      56   8  15 CALM      30.22F
ELLICOTT         N/A    N/A N/A N/A VRB3      30.24F
FALCON         FAIR      60   6  11 SW8       30.28F
FORT CARSON    FAIR      61   8  12 SE5       30.23F
LIMON          FAIR      66  14  13 N12       30.21F
MONUMENT HILL  FAIR      61  12  15 CALM      30.28F
CANON CITY     FAIR      66  16  14 E8        30.20F
WALSENBURG     FAIR      68  12  11 S6        30.24F
TRINIDAD       FAIR      63   8  11 SE5       30.25F
$$

COZ042>045-048>051-090-091-122200-
...NORTHEAST COLORADO...

CITY           SKY/WX    TMP DP  RH WIND       PRES   REMARKS
GREELEY ARPT   FAIR      62  19  19 S3        30.18F
AKRON          FAIR      64  12  13 MISG      30.16F
BURLINGTON     FAIR      65  16  15 N9        30.17F
WRAY           FAIR      64  14  14 NW9       30.14F
YUMA           FAIR      63  14  15 NW13G18   30.15F
STERLING       FAIR      68  19  15 W10       30.11F
HOLYOKE        FAIR      68  16  13 NW8       30.12F
FORT MORGAN    FAIR      63  11  13 W9        30.17F
$$

COZ086-089-092>099-122200-
...SOUTHEAST COLORADO...

CITY           SKY/WX    TMP DP  RH WIND       PRES   REMARKS
PUEBLO         FAIR      64  10  12 SE5       30.19F
LA JUNTA       FAIR      64  12  13 SW7       30.20F
LAMAR          FAIR      64  10  12 W9        30.18F
SPRINGFIELD      N/A     64  14  14 N10       30.20F
$$



USA.gov is the U.S. government's official web portal to all federal, state and local government web resources and services.